Location: Mascot Post Office (historical)
(40.2645°N, 99.5462°W)
Time: 02:29:22
(UTC+00:00)

Cosmos 1378 - Pass Details

Date: 14 July 2020
Orbit: 492 x 501 km, 82.5° (Epoch: 14 August)

Event Time Altitude Azimuth Distance (km) Brightness Sun altitude
Rises 09:45:52 0° 350° (N) 2,604 7.3 -15.1°
Reaches altitude 10° 09:48:00 10° 348° (NNW) 1,715 6.3 -14.8°
Maximum altitude 09:51:45 72° 264° (W) 531 3.0 -14.3°
Enters shadow 09:54:40 16° 182° (S) 1,382 4.9 -13.9°
